Le nostre stazioni meteo in Italia

Pubblicità
Il mio iltempo24.it
Ronchi Dei Legionari, Italia (16108): Temperatura & dewpoint: 30.06.2020 00:00:00 - 06.07.2020 00:00:00 (CEST)Ronchi Dei Legionari, Italia (16108): velocità del vento: 30.06.2020 00:00:00 - 06.07.2020 00:00:00 (CEST)Ronchi Dei Legionari, Italia (16108): direzione del vento: 30.06.2020 00:00:00 - 06.07.2020 00:00:00 (CEST)Ronchi Dei Legionari, Italia (16108): reduced air pressure: 30.06.2020 00:00:00 - 06.07.2020 00:00:00 (CEST)Ronchi Dei Legionari, Italia (16108): visibility: 30.06.2020 00:00:00 - 06.07.2020 00:00:00 (CEST)Ronchi Dei Legionari, Italia (16108): precipitazioni: 30.06.2020 00:00:00 - 06.07.2020 00:00:00 (CEST)
Data & Tempo tt [°C] td [°C] ff [km/h] ff [kn] dd ppp [hPa] vv [km] rr [mm]
06.07.2020 00:00:00 21,0 17,0 2 1 - - 10 -
05.07.2020 23:00:00 21,9 17,0 4 2 - 1013,4 10 0,0
05.07.2020 22:00:00 24,0 16,0 8 4 NNE - 10 -
05.07.2020 21:00:00 26,0 16,0 8 4 NO - 10 -
05.07.2020 20:00:00 28,6 14,9 11 6 ONO 1013,1 10 -
05.07.2020 19:00:00 30,0 15,0 13 7 ONO - 10 -
05.07.2020 18:00:00 31,0 16,0 15 8 ONO - 10 -
05.07.2020 17:00:00 30,7 14,5 13 7 ONO 1014,2 10 0,0
05.07.2020 16:00:00 31,0 14,0 15 8 ONO - 10 -
05.07.2020 15:00:00 31,0 14,0 11 6 O - 10 -
05.07.2020 14:00:00 29,8 13,2 9 5 N 1015,9 10 -
05.07.2020 13:00:00 30,0 12,0 13 7 N - 10 -
05.07.2020 12:00:00 29,0 13,0 11 6 N - 10 -
05.07.2020 11:00:00 28,6 12,8 13 7 NNE 1017,3 10 0,0
05.07.2020 10:00:00 27,0 14,0 9 5 N - 10 -
05.07.2020 09:00:00 24,0 15,0 11 6 N - 10 -
05.07.2020 08:00:00 22,5 14,0 9 5 N 1017,5 10 -
05.07.2020 07:00:00 20,0 14,0 5 3 N - 10 -
05.07.2020 06:00:00 17,0 13,0 5 3 N - 10 -
05.07.2020 05:00:00 16,2 13,3 2 1 - 1017,1 10 0,0
05.07.2020 04:00:00 16,0 14,0 4 2 - - 10 -
05.07.2020 03:00:00 17,0 15,0 2 1 - - 10 -
05.07.2020 02:00:00 16,8 14,3 2 1 - 1016,9 10 -
05.07.2020 01:00:00 17,0 15,0 4 2 N - 10 -
05.07.2020 00:00:00 18,0 15,0 2 1 - - 10 -
04.07.2020 23:00:00 21,4 13,4 9 5 SE 1016,7 10 0,0
04.07.2020 22:00:00 21,0 14,0 4 2 - - 10 -
04.07.2020 21:00:00 25,0 13,0 2 1 - - 10 -
04.07.2020 20:00:00 26,8 12,8 9 5 O 1015,5 10 -
04.07.2020 19:00:00 29,0 12,0 9 5 O - 10 -
04.07.2020 18:00:00 28,0 11,0 13 7 SO - 10 -
04.07.2020 17:00:00 28,6 11,5 15 8 OSO 1015,4 10 0,0
04.07.2020 16:00:00 29,0 11,0 16 9 OSO - 10 -
04.07.2020 15:00:00 30,0 8,0 5 3 - - 10 -
04.07.2020 14:00:00 29,3 8,3 13 7 ESE 1016,7 10 -
04.07.2020 13:00:00 29,0 10,0 13 7 ESE - 10 -
04.07.2020 12:00:00 28,0 10,0 9 5 - - 10 -
04.07.2020 11:00:00 27,3 12,0 11 6 N 1017,2 10 0,0
04.07.2020 10:00:00 26,0 12,0 9 5 N - 10 -
04.07.2020 09:00:00 25,0 13,0 8 4 NNE - 10 -
04.07.2020 08:00:00 23,0 14,0 8 4 NNE 1017,3 10 -
04.07.2020 07:00:00 20,0 16,0 4 2 - - 10 -
04.07.2020 06:00:00 17,0 14,0 2 1 - - 10 -
04.07.2020 05:00:00 16,5 14,2 8 4 O 1016,3 10 0,0
04.07.2020 04:00:00 17,0 14,0 4 2 - - 10 -
04.07.2020 03:00:00 17,0 14,0 8 4 O - 10 -
04.07.2020 02:00:00 17,6 14,1 5 3 O 1016,1 10 -
04.07.2020 01:00:00 20,0 14,0 2 1 - - 10 -
04.07.2020 00:00:00 21,0 13,0 9 5 ENE - 10 -
03.07.2020 23:00:00 20,0 14,5 5 3 ENE 1016,0 10 0,0
03.07.2020 22:00:00 22,0 13,0 5 3 E - 10 -
03.07.2020 21:00:00 24,0 13,0 9 5 ESE - 10 -
03.07.2020 20:00:00 24,7 12,7 18 10 ESE 1013,8 10 -
03.07.2020 19:00:00 25,0 13,0 22 12 ESE - 10 -
03.07.2020 18:00:00 26,0 14,0 21 11 ESE - 10 -
03.07.2020 17:00:00 26,5 12,8 22 12 ESE 1013,0 10 0,0
03.07.2020 16:00:00 28,0 13,0 15 8 E - 10 -
03.07.2020 15:00:00 26,0 13,0 11 6 ENE - 10 -
03.07.2020 14:00:00 26,1 13,7 13 7 E 1013,5 10 -
03.07.2020 13:00:00 27,0 16,0 9 5 NNE - 10 -
03.07.2020 12:00:00 24,0 16,0 9 5 E - 10 -
03.07.2020 11:00:00 23,3 16,9 5 3 E 1012,5 10 0,0
03.07.2020 10:00:00 22,0 17,0 8 4 N - 10 -
03.07.2020 09:00:00 22,0 17,0 13 7 NE - 10 -
03.07.2020 08:00:00 21,9 16,1 16 9 ENE 1010,7 10 -
03.07.2020 07:00:00 21,0 18,0 16 9 NE - 10 -
03.07.2020 06:00:00 22,0 17,0 13 7 N - 10 -
03.07.2020 05:00:00 20,2 18,4 4 2 - 1009,8 10 0,0
03.07.2020 04:00:00 21,0 18,0 8 4 NNE - 10 -
03.07.2020 03:00:00 20,0 18,0 2 1 - - 10 -
03.07.2020 02:00:00 20,9 17,8 9 5 NNE 1010,0 10 -
03.07.2020 01:00:00 21,0 18,0 8 4 NNE - 10 -
03.07.2020 00:00:00 21,0 18,0 5 3 NNE - 10 -
02.07.2020 23:00:00 22,1 18,0 9 5 NNE 1009,8 10 0,0
02.07.2020 22:00:00 22,0 18,0 4 2 NNE - 10 -
02.07.2020 21:00:00 24,0 19,0 9 5 N - 10 -
02.07.2020 20:00:00 26,1 18,9 8 4 NO 1009,5 10 -
02.07.2020 19:00:00 28,0 19,0 11 6 N - 10 -
02.07.2020 18:00:00 28,0 17,0 13 7 NNE - 10 -
02.07.2020 17:00:00 27,8 18,6 8 4 - 1010,1 10 0,0
02.07.2020 16:00:00 28,0 19,0 5 3 - - 10 -
02.07.2020 15:00:00 26,0 20,0 8 4 S - 10 -
02.07.2020 14:00:00 25,3 20,8 4 2 - 1011,2 10 -
02.07.2020 13:00:00 25,0 21,0 9 5 O - 10 -
02.07.2020 12:00:00 27,0 21,0 11 6 O - 10 -
02.07.2020 11:00:00 26,9 20,0 9 5 ONO 1011,1 10 0,0
02.07.2020 10:00:00 27,0 18,0 5 3 - - 10 -
02.07.2020 09:00:00 25,0 19,0 8 4 NNE - 10 -
02.07.2020 08:00:00 24,3 19,4 4 2 - 1010,4 10 -
02.07.2020 07:00:00 23,0 19,0 5 3 NNE - 10 -
02.07.2020 06:00:00 20,0 19,0 5 3 N - 10 -
02.07.2020 05:00:00 20,2 17,8 5 3 SE 1009,7 10 0,0
02.07.2020 04:00:00 21,0 20,0 8 4 NE - 10 -
02.07.2020 03:00:00 21,0 20,0 2 1 - - 10 -
02.07.2020 02:00:00 22,0 19,8 5 3 SE 1010,8 10 -
02.07.2020 01:00:00 22,0 20,0 4 2 NO - 10 -
02.07.2020 00:00:00 22,0 21,0 9 5 ONO - 10 -
01.07.2020 23:00:00 23,2 20,7 5 3 ENE 1010,6 10 0,0
01.07.2020 22:00:00 25,0 20,0 5 3 SSE - 10 -
01.07.2020 21:00:00 26,0 20,0 5 3 SSE - 10 -
01.07.2020 20:00:00 27,5 18,9 9 5 SO 1010,0 10 -
01.07.2020 19:00:00 28,0 21,0 8 4 SO - 10 -
01.07.2020 18:00:00 28,0 21,0 8 4 OSO - 10 -
01.07.2020 17:00:00 29,3 18,3 15 8 OSO 1010,5 10 0,0
01.07.2020 16:00:00 31,0 19,0 18 10 OSO - 10 -
01.07.2020 15:00:00 32,0 18,0 11 6 - - 10 -
01.07.2020 14:00:00 30,7 18,2 8 4 S 1011,0 10 -
01.07.2020 13:00:00 30,0 19,0 8 4 - - 10 -
01.07.2020 12:00:00 30,0 19,0 9 5 SSO - 10 -
01.07.2020 11:00:00 29,2 18,5 8 4 SO 1012,1 10 0,0
01.07.2020 10:00:00 28,0 20,0 4 2 - - 10 -
01.07.2020 09:00:00 26,0 19,0 2 1 - - 10 -
01.07.2020 08:00:00 24,5 19,4 5 3 NNE 1012,3 10 -
01.07.2020 07:00:00 22,0 20,0 4 2 - - 10 -
01.07.2020 06:00:00 19,0 18,0 4 2 - - 10 -
01.07.2020 05:00:00 18,9 18,0 4 2 NNE 1011,6 10 0,0
01.07.2020 04:00:00 19,0 18,0 5 3 NNE - 10 -
01.07.2020 03:00:00 20,0 19,0 4 2 E - 10 -
01.07.2020 02:00:00 20,2 19,2 4 2 N 1012,1 - -
01.07.2020 01:00:00 22,0 20,0 4 2 E - 10 -
01.07.2020 00:00:00 22,0 20,0 4 2 NE - 10 -
30.06.2020 23:00:00 22,6 20,7 4 2 - 1012,2 10 0,0
30.06.2020 22:00:00 25,0 21,0 8 4 SE - 10 -
30.06.2020 21:00:00 26,0 20,0 8 4 S - 10 -
30.06.2020 20:00:00 28,0 18,3 5 3 S 1011,0 10 -
30.06.2020 19:00:00 29,0 18,0 9 5 OSO - 10 -
30.06.2020 18:00:00 29,0 18,0 15 8 OSO - 10 -
30.06.2020 17:00:00 30,0 18,8 13 7 SO 1011,3 10 0,0
30.06.2020 16:00:00 31,0 19,0 8 4 SSO - 10 -
30.06.2020 15:00:00 30,0 18,0 8 4 SSO - 10 -
30.06.2020 14:00:00 29,6 16,9 8 4 SSE 1012,0 10 -
30.06.2020 13:00:00 29,0 18,0 11 6 N - 10 -
30.06.2020 12:00:00 28,0 16,0 9 5 ENE - 10 -
30.06.2020 11:00:00 27,2 16,2 9 5 ENE 1012,7 10 0,0
30.06.2020 10:00:00 27,0 17,0 8 4 ENE - 10 -
30.06.2020 09:00:00 25,0 16,0 9 5 E - 10 -
30.06.2020 08:00:00 23,1 16,9 8 4 NNE 1012,3 10 -
30.06.2020 07:00:00 22,0 16,0 8 4 N - 10 -
30.06.2020 06:00:00 20,0 16,0 2 1 - - 10 -
30.06.2020 05:00:00 20,1 16,1 5 3 N 1011,5 10 0,0
30.06.2020 04:00:00 21,0 15,0 5 3 NNE - 10 -
30.06.2020 03:00:00 21,0 17,0 5 3 NE - 10 -
30.06.2020 02:00:00 20,2 16,5 4 2 N 1011,5 10 -
30.06.2020 01:00:00 21,0 17,0 5 3 N - 10 -
30.06.2020 00:00:00 21,0 17,0 5 3 N - 10 -

tt = Temperatura
td = dewpoint
ff = velocità del vento
dd = direzione del vento
ppp = reduced air pressure
vv = visibility
rr = precipitazioni

Stazioni seguenti

WeatherPro
AMSI
MeteoEarth